Location: Blessum
(53.1817°N, 5.7095°E)
Time: 05:28:42
(UTC+00:00)

Daily predictions for brighter satellites

Satellite Brightness Start Highest point End
(mag) Time Altitude Azimuth Time Altitude Azimuth Time Altitude Azimuth
CENTAUR R/B 4.2 02:24:48 38° ENE 02:24:48 38° ENE 02:30:22 10° E
Cosmos 2263 Rocket 4.5 02:47:14 19° ENE 02:47:14 19° ENE 02:49:19 10° E
CZ-2C R/B 4.2 03:27:27 10° NNE 03:30:12 28° NE 03:30:12 28° NE
Cosmos 1980 Rocket 3.5 03:36:51 34° ESE 03:37:17 34° ESE 03:42:21 10° NE
Cosmos 1697 Rocket 3.6 03:44:34 46° ENE 03:44:34 46° ENE 03:48:40 10° NE
Cosmos 2369 Rocket 4.4 03:49:10 14° N 03:49:10 14° N 03:50:58 10° NNE
NOSS 3-2 (C) 3.8 03:53:00 82° SSW 03:53:00 82° SSW 04:01:05 10° SE
ATLAS 3B R/B 2.8 03:53:11 67° NNE 03:53:31 68° NE 04:00:20 10° ESE
USA 229 DEB 4.5 04:02:32 39° NNW 04:02:37 39° NNW 04:09:17 10° NE
USA 229 4.5 04:02:38 39° NNW 04:02:43 39° NNW 04:09:22 10° NE
Timation 1 Rocket 4.4 04:04:27 75° ENE 04:04:27 75° ENE 04:10:15 10° SE
NOSS 3-1 (A) 4.3 04:08:50 40° NNW 04:08:50 40° NNW 04:15:27 10° NE
NOSS 3-2 (A) 4.2 04:13:06 52° SSW 04:13:06 52° SSW 04:20:04 10° SSE
BREEZE-M DEB (TANK) 4.0 04:12:50 34° SE 04:12:50 34° SE 04:19:17 10° E
CENTAUR R/B 3.0 04:12:01 61° WNW 04:13:40 81° SW 04:22:20 10° SE
Cosmos 2278 Rocket 4.4 04:12:21 13° N 04:14:36 16° NNE 04:18:02 10° ENE
USA 215 3.1 04:08:38 10° ESE 04:15:12 84° SSW 04:15:48 75° W
Cosmos 1538 Rocket 4.1 04:17:56 72° E 04:17:56 72° E 04:23:06 10° NNE
Cosmos 1953 Rocket 4.4 04:18:27 48° E 04:18:27 48° E 04:22:30 10° SSE
Cosmos 972 Rocket 4.3 04:19:12 69° S 04:19:12 69° S 04:24:06 10° SSE
Cosmos 1656 4.5 04:20:45 39° N 04:20:45 39° N 04:24:29 10° NNE
Lacrosse 4 Rocket 4.1 04:21:34 11° N 04:21:34 11° N 04:22:02 10° NNE
Nadezhda 1 Rocket 3.8 04:25:44 67° SSW 04:26:36 83° W 04:32:45 10° N
Lacrosse 5 4.5 04:24:11 10° SSE 04:27:18 16° SE 04:30:25 10° E
Meteor 1-21 Rocket 4.2 04:27:49 78° WNW 04:28:03 79° W 04:33:59 10° S
Cosmos 2322 Rocket 4.3 04:24:24 10° SSE 04:28:55 25° ESE 04:33:28 10° NE
Cosmos 2263 Rocket 2.0 04:28:59 83° WNW 04:29:09 86° WSW 04:34:50 10° SSE
MSX 4.4 04:23:56 10° N 04:28:02 43° NNW 04:28:02 43° NNW
Cosmos 2341 Rocket 3.9 04:23:34 10° N 04:29:53 84° E 04:36:07 10° S
Lacrosse 5 rocket 2.2 04:33:22 48° NNE 04:33:22 48° NNE 04:37:13 10° ENE
Aureole 3 4.5 04:34:17 62° WNW 04:34:17 62° WNW 04:40:00 10° N
CZ-4B R/B 3.6 04:31:25 10° NNE 04:34:45 50° NNE 04:34:45 50° NNE
Cosmos 1844 Rocket 3.9 04:37:23 19° NNW 04:40:54 39° NE 04:46:09 10° ESE
ATLAS 2AS CENTAUR R/B 3.5 04:37:51 12° SSW 04:45:18 61° SE 04:53:06 10° NE
IDEFIX/ARIANE 42P 4.3 04:41:06 10° N 04:42:50 19° NNW 04:42:50 19° NNW
Cosmos 1726 3.0 04:48:01 45° NE 04:48:01 45° NE 04:50:48 10° NNE
STARLINK-43 4.0 04:48:25 54° E 04:48:25 54° E 04:51:22 10° E
Okean O Rocket 3.6 04:43:43 10° NNE 04:47:39 30° E 04:51:32 10° SSE
Cosmos 1680 Rocket 4.4 04:44:10 10° S 04:49:17 50° ESE 04:54:26 10° NNE
Cosmos 2360 4.1 04:48:23 57° WSW 04:49:28 73° NW 04:55:14 10° NNE
Cosmos 1371 Rocket 4.0 04:48:33 36° NNW 04:50:49 83° ENE 04:56:10 10° SSE
STARLINK-34 4.2 04:51:20 46° SSE 04:51:26 46° SSE 04:55:17 10° E
Cosmos 1953 3.8 04:55:18 26° N 04:55:18 26° N 04:57:11 10° N
PSLV R/B 4.0 04:49:32 10° NNE 04:53:19 64° ESE 04:54:39 37° S
Cosmos 2344 3.5 04:50:42 36° WSW 04:54:15 81° NW 05:03:03 10° NE
STARLINK-33 4.0 04:55:45 46° SE 04:55:45 46° SE 04:58:56 10° E
STARLINK-24 4.1 04:55:13 47° S 04:55:31 48° SSE 04:59:25 10° E
Cosmos 2218 Rocket 4.1 04:49:44 10° N 04:56:11 83° E 05:02:33 10° SSE
STARLINK-66 3.9 04:57:21 48° SE 04:57:21 48° SE 05:00:34 10° E
STARLINK-81 4.2 04:56:55 45° S 04:57:20 47° SSE 05:01:14 10° E
Cosmos 1943 Rocket 4.3 04:56:47 11° NNW 04:58:24 12° N 05:00:42 10° NNE
STARLINK-55 3.9 04:59:00 50° SE 04:59:00 50° SE 05:02:17 10° E
STARLINK-54 4.1 04:58:46 47° S 04:59:11 50° SSE 05:03:06 10° E
Cosmos 2058 Rocket 4.0 04:55:17 10° SSE 04:59:30 49° E 05:03:44 10° NNE
Cosmos 2278 3.7 04:58:47 51° W 04:59:48 59° NW 05:05:28 10° NNE
STARLINK-28 3.8 05:00:41 53° SSE 05:00:41 53° SSE 05:04:01 10° E
STARLINK-77 4.1 05:00:07 45° S 05:00:39 49° SSE 05:04:34 10° E
STARLINK-25 4.1 05:01:42 45° S 05:02:18 50° SSE 05:06:13 10° E
STARLINK-75 3.8 05:02:47 53° S 05:03:01 54° SSE 05:06:44 10° E
STARLINK-71 4.0 05:03:32 48° S 05:04:08 53° SSE 05:08:04 10° E
COSMOS 2455 2.7 05:01:24 32° SW 05:04:23 83° NW 05:10:27 10° NE
FENGYUN 3A 3.9 04:59:46 10° NNE 05:05:12 71° ESE 05:10:36 10° S
STARLINK-79 4.1 05:04:49 45° SSW 05:05:32 51° SSE 05:09:28 10° E
Orbus 7S? 4.5 05:07:24 31° SSW 05:07:24 31° SSW 05:11:36 10° SSE
STARLINK-78 4.1 05:06:30 44° SSW 05:07:16 52° SSE 05:11:13 10° E
NOSS 2-2 (D) 3.4 05:08:08 58° NW 05:08:08 58° NW 05:12:36 10° NE
Cosmos 773 Rocket 4.4 05:08:29 41° NW 05:08:29 41° NW 05:13:27 10° NNE
STARLINK-57 4.0 05:08:11 45° SSW 05:09:00 54° SSE 05:12:56 10° E
STARLINK-41 3.8 05:08:41 48° S 05:09:13 53° SSE 05:12:55 10° E
Cosmos 1606 Rocket 3.4 05:05:05 10° SSW 05:09:31 77° WNW 05:13:57 10° N
Cosmos 1726 Rocket 3.5 05:05:33 10° S 05:10:00 89° ENE 05:14:26 10° NNE
SL-16 R/B 3.0 05:04:36 10° S 05:10:05 53° ESE 05:15:37 10° NE
CZ-2C R/B 3.1 05:05:47 10° N 05:09:36 36° NW 05:09:36 36° NW
Cosmos 2369 4.1 05:09:50 40° WNW 05:10:32 42° NW 05:16:00 10° NNE
STARLINK-49 4.0 05:09:40 43° SSW 05:10:34 54° SSE 05:14:31 10° E
Cosmos 1959 Rocket 4.3 05:05:09 10° NNW 05:11:18 82° W 05:17:28 10° S
STARLINK-27 4.0 05:11:16 42° SSW 05:12:13 55° SSE 05:16:10 10° E
DMSP B5D1-3 4.5 05:08:05 10° SSE 05:13:12 87° ENE 05:18:21 10° NNW
COSMO-SKYMED 1 3.3 05:09:21 10° S 05:12:23 37° SW 05:12:23 37° SW
STARLINK-74 4.0 05:12:51 42° SSW 05:13:51 56° SSE 05:17:49 10° E
STARLINK 3.9 05:13:34 44° SSW 05:14:20 54° SSE 05:18:01 10° E
STARLINK-61 3.6 05:14:08 55° SW 05:14:48 70° SSE 05:18:46 10° E
Cosmos 2360 Rocket 4.2 05:10:12 10° SSE 05:14:58 29° ESE 05:19:47 10° NE
STARLINK-39 4.0 05:14:27 41° SSW 05:15:31 56° SSE 05:19:29 10° E
STARLINK 3.9 05:16:03 40° SW 05:17:11 57° SSE 05:21:09 10° E
Cosmos 1624 Rocket 3.9 05:15:49 26° NNW 05:18:47 71° WSW 05:23:56 10° SSE
CZ-4B R/B 3.9 05:13:19 10° NNE 05:18:48 55° E 05:24:08 10° S
H-2A R/B 4.1 05:15:21 10° N 05:16:41 19° NNW 05:16:41 19° NNW
STARLINK-69 3.9 05:17:49 41° SW 05:18:59 61° SSE 05:22:57 10° E
STARLINK-21 3.9 05:19:14 39° SW 05:20:29 59° SSE 05:24:28 10° E
Cosmos 1328 3.9 05:21:05 50° WSW 05:21:05 50° WSW 05:24:42 10° S
Cosmos 1980 Rocket 2.3 05:18:40 32° WSW 05:21:06 55° NW 05:26:41 10° NNE
Cosmos 2228 2.9 05:17:09 10° SSW 05:21:32 65° WNW 05:25:54 10° N
Cosmos 1844 4.3 05:17:03 14° NNW 05:21:46 55° NE 05:27:13 10° SE
STARLINK-45 3.8 05:21:05 40° SW 05:22:20 63° SSE 05:26:20 10° E
STARLINK-70 3.8 05:22:35 38° SW 05:23:55 63° SSE 05:27:55 10° E
STARLINK-76 3.8 05:24:01 36° SW 05:25:26 62° SSE 05:29:26 10° E
RESURS DK-1 4.2 05:22:57 10° S 05:26:40 33° ESE 05:30:25 10° NE
Cosmos 2366 rocket 3.9 05:20:21 10° NNW 05:26:41 69° W 05:32:58 10° S
STARLINK 3.8 05:25:36 35° SW 05:27:04 63° SSE 05:31:05 10° E
Cosmos 1697 Rocket 3.3 05:26:20 32° WNW 05:27:26 34° NW 05:32:35 10° NNE
Meteor 1-16 Rocket 4.2 05:21:47 10° SSW 05:27:40 70° WNW 05:33:28 10° N
STARLINK-32 3.8 05:27:12 34° SW 05:28:46 64° SSE 05:32:46 10° E
STARLINK-40 3.8 05:28:47 33° SW 05:30:24 65° SSE 05:34:24 10° E
STARLINK-44 3.8 05:30:22 33° SW 05:32:02 65° SSE 05:36:02 10° E
STARLINK-37 3.7 05:32:05 32° SW 05:33:47 67° SSE 05:37:48 10° E
Cosmos 2369 Rocket 4.4 05:31:21 10° NNW 05:34:01 13° N 05:36:41 10° NE
STARLINK-80 3.3 05:33:02 44° W 05:34:09 89° S 05:37:58 10° E
Cosmos 2056 Rocket 3.6 05:30:36 20° NW 05:34:19 57° WSW 05:39:37 10° S
Cosmos 1908 3.1 05:30:26 10° SSW 05:34:21 72° WNW 05:38:16 10° N
STARLINK-36 3.7 05:33:32 31° WSW 05:35:20 67° SSE 05:39:21 10° E
STARLINK-68 3.7 05:35:22 31° WSW 05:37:11 70° SSE 05:41:13 10° E
PAYLOAD B 4.2 05:32:49 10° NNE 05:38:28 86° WNW 05:44:06 10° SSW
STARLINK-63 3.7 05:36:51 30° WSW 05:38:44 70° SSE 05:42:46 10° E
ALOS 2.2 05:34:26 10° N 05:39:03 59° WNW 05:43:38 10° SSW
STARLINK-35 3.7 05:38:18 28° WSW 05:40:17 70° SSE 05:44:18 10° E
STARLINK-51 3.7 05:39:55 27° WSW 05:41:58 70° SSE 05:45:59 10° E
Cosmos 923 Rocket 4.1 05:38:12 10° SW 05:43:24 57° WNW 05:48:41 10° NNE
STARLINK-30 3.7 05:41:30 27° WSW 05:43:37 71° SSE 05:47:38 10° E
ATLAS 3B R/B 3.2 05:40:28 24° WNW 05:43:57 40° WSW 05:50:15 10° S
Cosmos 1484 Rocket 3.7 05:41:17 10° N 05:43:51 27° NW 05:43:51 27° NW
MOS 1-B 4.3 05:39:10 10° NNE 05:44:55 68° WNW 05:50:40 10° SSW
STARLINK-72 3.7 05:43:05 26° WSW 05:45:14 72° SSE 05:49:17 10° E
STARLINK-50 3.6 05:44:42 25° WSW 05:46:56 73° SSE 05:50:57 10° E
NOSS 2-2 (C) 4.1 05:45:52 29° WNW 05:47:10 37° NNW 05:51:36 10° NE
STARLINK-42 3.4 05:46:36 27° WSW 05:48:30 75° SSE 05:52:14 10° E
STARLINK-59 3.6 05:46:23 25° WSW 05:48:40 75° SSE 05:52:42 10° E
STARLINK-56 3.6 05:47:51 24° WSW 05:50:13 74° SSE 05:54:15 10° E
STARLINK 1028 4.1 05:49:09 15° SW 05:51:07 34° SSE 05:53:50 10° E
STARLINK 1021 4.1 05:49:26 15° SW 05:51:25 35° SSE 05:54:08 10° E
STARLINK 1019 4.1 05:49:41 15° SW 05:51:40 34° SSE 05:54:21 10° E
Cosmos 1892 4.1 05:48:01 10° N 05:51:41 40° ENE 05:55:17 10° SE
STARLINK 1012 4.1 05:49:52 15° SW 05:51:52 35° SSE 05:54:34 10° E
Starlink (trailer) 3.6 05:49:26 23° WSW 05:51:52 75° SSE 05:55:54 10° E
STARLINK 1010 4.1 05:50:05 15° SW 05:52:06 35° SSE 05:54:49 10° E
STARLINK 1026 4.1 05:50:18 15° SW 05:52:18 35° SSE 05:55:02 10° E
STARLINK 1013 4.1 05:50:31 15° SW 05:52:33 35° SSE 05:55:16 10° E
STARLINK 1009 4.1 05:50:44 15° SW 05:52:47 35° SSE 05:55:31 10° E
STARLINK 1015 4.1 05:50:57 15° SW 05:53:00 35° SSE 05:55:43 10° E
Cosmos 1703 4.3 05:53:18 25° W 05:53:18 25° W 05:56:27 10° SW
STARLINK 1016 4.1 05:51:10 15° SW 05:53:13 35° SSE 05:55:57 10° E
STARLINK 1008 4.1 05:51:22 15° SW 05:53:26 35° SSE 05:56:09 10° E
STARLINK-38 3.6 05:51:02 22° WSW 05:53:31 76° SSE 05:57:33 10° E
STARLINK 1025 4.1 05:51:48 15° SW 05:53:53 36° SSE 05:56:36 10° E
STARLINK 1017 4.1 05:52:02 15° SW 05:54:07 36° SSE 05:56:51 10° E
STARLINK 1023 4.1 05:52:13 15° SW 05:54:19 36° SSE 05:57:04 10° E
STARLINK 1007 4.1 05:52:27 15° SW 05:54:33 36° SSE 05:57:17 10° E
STARLINK 1048 4.1 05:52:41 15° SW 05:54:47 36° SSE 05:57:31 10° E
STARLINK 1049 4.1 05:52:53 15° SW 05:55:01 36° SSE 05:57:45 10° E
STARLINK-65 3.6 05:52:37 22° WSW 05:55:10 76° SSE 05:59:12 10° E
STARLINK 1051 4.0 05:53:07 14° SW 05:55:15 36° SSE 05:57:59 10° E
Cosmos 1867 3.9 05:51:26 15° NW 05:56:01 65° NE 06:01:26 10° ESE
NOSS 2-2 (E) 4.4 05:55:06 24° WNW 05:56:49 33° NNW 06:01:19 10° NE
STARLINK-53 3.6 05:54:19 21° WSW 05:56:54 78° SSE 06:00:56 10° E
ADEOS Rocket 2.8 05:51:40 10° S 05:57:09 66° WSW 06:03:01 10° NNW
Transit 2A Rocket 4.4 05:53:01 10° SW 05:57:19 73° NW 06:01:45 10° NE
USA 215 4.0 05:52:51 10° SSE 05:58:47 36° SW 06:03:09 17° WNW
STARLINK-64 3.4 05:57:29 21° WSW 05:59:54 79° SSE 06:03:41 10° E
STARLINK-48 3.4 05:57:58 24° W 06:00:13 88° SSW 06:04:08 10° E
STARLINK-26 3.1 05:58:25 26° W 06:00:17 90° S 06:03:46 10° E
METEOR-M 4.3 05:55:11 10° N 06:00:20 48° WNW 06:05:26 10° SW
Cosmos 2278 Rocket 3.4 05:55:02 10° NNW 06:00:21 39° NE 06:05:39 10° ESE
Lacrosse 4 Rocket 3.8 05:58:32 10° NNW 06:00:55 14° NNE 06:03:19 10° NE
NOSS 3-4 (A) 3.4 05:54:54 10° SW 06:01:00 81° NW 06:07:36 10° NE
NOSS 3-4 (C) 3.4 05:55:01 10° SW 06:01:06 81° NW 06:07:42 10° NE
STARLINK 1034 4.5 05:58:13 10° SW 06:01:45 41° SSE 06:05:18 10° E
CENTAUR R/B 4.0 05:59:13 17° WNW 06:03:45 28° WSW 06:10:44 10° SSW
STARLINK 1014 3.8 06:04:00 12° SW 06:06:41 43° SSE 06:09:36 10° E
Cosmos 2058 2.9 06:03:31 10° N 06:07:46 88° E 06:11:59 10° S
CZ-4B DEB 4.4 06:02:52 10° N 06:08:13 49° WNW 06:13:30 10° SW
STARLINK 1033 4.4 06:04:53 10° SW 06:08:28 45° SSE 06:12:03 10° E
STARLINK-58 3.5 06:05:37 17° WSW 06:08:39 82° S 06:12:40 10° E
Cosmos 1437 2.7 06:06:28 13° NNW 06:09:05 50° W 06:12:02 10° S
Lacrosse 5 2.4 06:04:27 10° SW 06:09:26 59° SE 06:14:27 10° ENE
Cosmos 1812 Rocket 3.8 06:05:24 10° S 06:09:46 75° E 06:14:12 10° NNE
CZ-4B R/B 4.4 06:07:25 10° NNW 06:10:20 18° NW 06:10:53 17° WNW
STARLINK-62 3.5 06:07:18 17° WSW 06:10:23 83° S 06:14:24 10° E
Cosmos 2181 Rocket 4.4 06:04:38 10° SW 06:10:31 41° WNW 06:16:31 10° N
Cosmos 2263 Rocket 3.6 06:10:43 16° W 06:12:18 18° W 06:16:00 10° SW
Lacrosse 5 rocket 1.6 06:09:00 18° WNW 06:12:24 78° NNE 06:16:49 10° ESE
Cosmos 2322 Rocket 2.2 06:06:47 10° SW 06:12:27 73° NW 06:18:12 10° NNE
Cosmos 1825 4.2 06:09:44 10° N 06:13:05 29° ENE 06:16:24 10° SE
Cosmos 1340 Rocket 3.2 06:10:32 10° S 06:14:25 64° E 06:18:18 10° NNE
Cosmos 158 Rocket 3.9 06:10:17 10° SW 06:15:06 58° WNW 06:20:03 10° NNE
Envisat 3.8 06:11:04 10° NNE 06:16:05 55° E 06:21:05 10° S
Cosmos 1452 Rocket 3.5 06:11:27 10° NNW 06:16:41 64° WSW 06:21:51 10° S
STARLINK 1029 3.8 06:15:17 10° SW 06:18:19 48° SSE 06:21:22 10° E
AQUARIUS 4.3 06:14:02 10° NNE 06:18:35 82° ESE 06:23:05 10° SSW
Cosmos 1110 Rocket 4.5 06:15:22 10° NNW 06:20:39 63° ENE 06:25:56 10° SE
Helios 1A Rocket 3.1 06:17:42 10° N 06:21:44 51° WNW 06:25:45 10° SW
Cosmos 1726 3.7 06:22:37 15° WNW 06:22:48 15° WNW 06:25:00 10° NNW
Okean O Rocket 2.0 06:19:56 10° N 06:24:08 41° WNW 06:28:17 10° SW
Cosmos 1844 Rocket 2.9 06:19:32 10° NW 06:25:00 53° WSW 06:30:28 10° S
STARLINK-43 3.7 06:22:33 15° W 06:25:30 55° SSW 06:29:08 10° ESE
Elektron 3 4.2 06:21:27 10° WSW 06:25:40 54° NNW 06:28:33 10° NE
STARLINK 1040 3.2 06:24:52 10° WSW 06:27:41 56° SSE 06:30:30 10° E
Cosmos 2333 Rocket 3.9 06:23:53 10° S 06:29:10 39° ESE 06:34:29 10° NE
Okean-O 3.4 06:25:34 10° NNE 06:29:58 58° ESE 06:34:21 10° S
Okean 3 Rocket 3.9 06:25:28 10° N 06:30:03 74° ENE 06:34:36 10° SSE
STARLINK-34 3.5 06:26:25 11° W 06:30:16 87° S 06:34:17 10° E
Cosmos 1953 4.4 06:31:02 10° NW 06:31:02 10° NW 06:31:06 10° NW
Cosmos 1680 Rocket 4.1 06:26:46 10° WSW 06:31:37 35° NW 06:36:30 10° NNE
STARLINK 1044 3.9 06:28:35 10° WSW 06:32:17 58° SSE 06:36:00 10° E
STARLINK-33 3.2 06:29:20 11° W 06:32:44 89° SSE 06:36:19 10° E
NOAA 6 4.5 06:28:30 10° N 06:33:21 41° WNW 06:38:10 10° SW
STARLINK-66 3.2 06:30:56 11° W 06:34:22 89° SSW 06:37:56 10° E
Cosmos 1821 Rocket 4.1 06:28:26 10° NNW 06:34:26 53° W 06:40:19 10° SSW
STARLINK-24 3.6 06:30:29 10° W 06:34:31 88° S 06:38:34 10° E
EXPRESS MD2 3.4 06:33:17 10° W 06:35:45 30° SSW 06:37:43 10° SE
SMAP 3.0 06:31:15 10° N 06:35:54 68° WNW 06:40:31 10° SSW
STARLINK-55 3.2 06:32:35 10° W 06:36:05 89° S 06:39:39 10° E
STARLINK-81 3.6 06:32:17 10° W 06:36:21 88° S 06:40:24 10° E
ATLAS 2AS CENTAUR R/B 3.2 06:28:38 10° WSW 06:36:34 59° NNW 06:44:20 10° NE
Cosmos 1408 3.0 06:33:26 10° N 06:37:10 68° ENE 06:40:51 10° SSE
Cosmos 2058 Rocket 4.1 06:34:14 10° WSW 06:37:47 23° WNW 06:41:19 10° NNW
STARLINK-28 3.2 06:34:17 10° W 06:37:49 89° S 06:41:24 10° E
STARLINK-54 3.6 06:34:10 10° W 06:38:13 88° S 06:42:16 10° E
STARLINK-77 3.6 06:35:38 10° W 06:39:40 88° S 06:43:43 10° E
STARLINK 1035 3.7 06:36:17 10° WSW 06:39:44 61° SSE 06:43:12 10° E
CZ-4 R/B 2.8 06:36:47 10° NNE 06:40:53 45° E 06:44:55 10° S
IRS-1C Rocket 4.1 06:35:44 10° NNE 06:41:02 78° WNW 06:46:18 10° SSW
STARLINK-75 3.4 06:37:21 10° W 06:41:10 89° S 06:44:59 10° E
Nadezhda 3 Rocket 4.0 06:35:10 10° SSW 06:41:16 63° WNW 06:47:28 10° N
STARLINK-25 3.6 06:37:16 10° W 06:41:19 88° S 06:45:22 10° E
NOAA 12 4.2 06:36:27 10° NNE 06:41:48 87° ESE 06:47:07 10° SSW
STARLINK-71 3.6 06:39:08 10° W 06:43:11 89° S 06:47:14 10° E
STARLINK 1027 3.6 06:39:55 10° WSW 06:43:24 65° SSE 06:46:53 10° E
Cosmos 1943 Rocket 4.1 06:40:32 10° NNW 06:44:31 19° NNE 06:48:28 10° ENE
STARLINK-79 3.6 06:40:31 10° W 06:44:34 89° S 06:48:37 10° E
Cosmos 1605 Rocket 4.2 06:39:06 10° N 06:45:34 87° E 06:51:55 10° S
STARLINK 1031 3.7 06:42:03 10° WSW 06:45:42 64° SSE 06:49:22 10° E
BREEZE-M DEB (TANK) 3.3 06:38:30 10° W 06:46:09 74° S 06:49:57 10° E
STARLINK-78 3.6 06:42:15 10° W 06:46:19 89° S 06:50:22 10° E
STARLINK-41 3.4 06:43:31 10° W 06:47:19 89° SSE 06:51:07 10° E
STARLINK-57 3.6 06:44:00 10° W 06:48:03 89° SSE 06:52:06 10° E
STARLINK 1024 3.7 06:45:12 10° WSW 06:48:52 65° SSE 06:52:33 10° E
STARLINK-49 3.6 06:45:34 10° W 06:49:37 89° SSE 06:53:39 10° E
COSMOS 2455 3.7 06:45:51 10° W 06:51:09 31° NNW 06:56:28 10° NE
STARLINK-27 3.6 06:47:14 10° W 06:51:17 89° SSE 06:55:19 10° E
H-2A R/B 3.4 06:47:49 10° N 06:51:25 35° WNW 06:54:59 10° SW
Cosmos 1076 Rocket 4.3 06:48:22 10° NNW 06:52:17 32° W 06:56:10 10° SSW
STARLINK 3.4 06:48:36 10° W 06:52:24 89° S 06:56:11 10° E
STARLINK-74 3.6 06:48:52 10° W 06:52:55 90° S 06:56:58 10° E
STARLINK-61 3.5 06:49:34 10° W 06:53:32 88° SSW 06:57:30 10° E
SL-16 R/B 2.7 06:49:08 10° WSW 06:54:26 39° NW 06:59:45 10° NNE
STARLINK-39 3.6 06:50:33 10° W 06:54:35 90° S 06:58:38 10° E
STARLINK 1032 3.6 06:51:35 10° WSW 06:55:16 69° SSE 06:58:57 10° E
